Montana Department of Transportation

Main Content

Accidents and Incidents Report

Hourly Weather Roundup

ASUS45 KTFX 142010
RWRMT 
MONTANA REGIONAL WEATHER ROUNDUP
NATIONAL WEATHER SERVICE GREAT FALLS MT
100 PM MST SUN FEB 14 2016

NOTE: "FAIR" INDICATES FEW OR NO CLOUDS BELOW 12000 FEET WITH NO
SIGNIFICANT WEATHER AND/OR OBSTRUCTIONS TO VISIBILITY.

MTZ001.007-043-142100-
WEST OF THE DIVIDE
  
CITY           SKY/WX    TMP DP  RH WIND       PRES   REMARKS
KALISPELL      CLOUDY    41  33  73 S9        30.01S                  
MISSOULA       CLOUDY    45  31  58 NW10      30.06F                  
BUTTE          MOSUNNY   41  22  46 NW22G32   29.99F                  
MULLAN PASS    FOG       31  30  96 NW10G23   30.03R VSB 1/4 WCI  22  
ANACONDA         N/A     45  25  45 W24G37    29.97F                  
DEER LODGE       N/A     45  25  45 NW14G21   29.99F                  
HAMILTON         N/A     46  32  57 S9        30.06F                  
--------------------------------

MTZ008-052.055-142100-
SOUTHWEST MONTANA
  
CITY           SKY/WX    TMP DP  RH WIND       PRES   REMARKS
BOZEMAN        CLOUDY    40  27  59 NW9       29.96S                  
DILLON         CLOUDY    48  21  34 NW24G30   30.00F                  
ENNIS          SUNNY     43  21  42 W15G24    30.05F                  
--------------------------------

MTZ009-010-012-014-046-048-049-054-142100-
EAST SLOPES AND CENTRAL MONTANA
  
CITY           SKY/WX    TMP DP  RH WIND       PRES   REMARKS
CUT BANK       SUNNY     47  18  31 W31G39    29.83F                  
GREAT FALLS    SUNNY     50  16  25 NW26G38   29.85S                  
MALMSTROM AFB  SUNNY     48  16  27 W23G32    29.87S                  
HELENA         SUNNY     48  23  37 W26G36    29.92R                  
CHOTEAU          N/A     48  18  29 W24G35    29.87F                  
--------------------------------

MTZ011-013-016-021-045-047-050-051-142100-
NORTH CENTRAL MONTANA
  
CITY           SKY/WX    TMP DP  RH WIND       PRES   REMARKS
HAVRE          SUNNY     52  21  29 NW24G35   29.77F                  
LEWISTOWN      CLOUDY    43  22  43 NW22G29   29.82S                  
N BAR RANCH    CLOUDY    41  21  45 NW24G40   29.82R                  
CHINOOK          N/A     52  21  30 W24G31    29.76S                  
--------------------------------

MTZ017.020-022.027-061-062-142100-
NORTHEAST MONTANA
  
CITY           SKY/WX    TMP DP  RH WIND       PRES   REMARKS
GLASGOW        CLOUDY    43  29  57 W12       29.71S                  
JORDAN           N/A     46  31  55 W24G31    29.73F                  
SIDNEY         MOSUNNY   39  30  70 W17       29.72S WCI  30          
WOLF POINT     CLOUDY    43  32  65 SW9       29.71F                  
PLENTYWOOD       N/A     37  27  65 SW5       29.68F                  
POPLAR           N/A     39  30  70 SW7       29.71F                  
--------------------------------

MTZ028.42-056.058-142100-
SOUTHCENTRAL AND SOUTHEAST MONTANA
  
CITY           SKY/WX    TMP DP  RH WIND       PRES   REMARKS
BILLINGS       MOSUNNY   51  21  30 NW36G53   29.82S                  
LIVINGSTON     MOSUNNY   47  21  35 W29G39    29.89F                  
MILES CITY     PTSUNNY   46  31  55 NW18G26   29.76F                  
FORSYTH          N/A     46  27  46 W22G30    29.77F                  
--------------------------------

REGIONAL REPORTS...DAKOTAS
  
CITY           SKY/WX    TMP DP  RH WIND       PRES   REMARKS
WILLISTON      CLOUDY    35  27  72 SW9       29.70F WCI  28          
MINOT          CLOUDY    36  26  67 W9        29.69R WCI  29          
DICKINSON      CLOUDY    37  29  72 W14       29.69S WCI  28          
BEACH          PTSUNNY   37  36  93 W15       29.76F WCI  28          
CROSBY         PTSUNNY   34  28  80 SW9       29.69F WCI  26          
TIOGA          CLOUDY    28  28 100 W9        29.72F WCI  20          
BISMARCK       CLOUDY    42  30  62 W14       29.72S                  
GRAND FORKS    LGT SNOW  18  13  80 S15       29.74F WCI   4          
FARGO          CLOUDY    18  13  80 S17       29.78F HAZE    WCI   3  
BUFFALO SD       N/A     37  33  85 W2229.70F WCI  26          
RAPID CITY     CLOUDY    39  31  72 N14       29.78F WCI  31          
--------------------------------

REGIONAL REPORTS...WYOMING/IDAHO/WASHINGTON
  
CITY           SKY/WX    TMP DP  RH WIND       PRES   REMARKS
GILLETTE       CLOUDY    40  28  62 NW16      29.80F                  
SHERIDAN       CLOUDY    43  25  49 W23G30    29.79F                  
BUFFALO WY     LGT RAIN  39  25  57 N23G35    29.84R WCI  28          
CODY           MOSUNNY   46  18  31 NW14G28   29.86S                  
YELLOWSTONE LA   N/A     29  21  72 W12G21    30.01F WCI  19          
IDAHO FALLS    CLOUDY    33  32  96 SW25G32   30.12F FOG     WCI  20  
SALMON         CLOUDY    37  27  65 CALM      30.10F                  
BOISE          CLOUDY    46  41  82 N3        30.27S                  
SPOKANE        LGT RAIN  44  40  85 W14       30.12R                  
--------------------------------

REGIONAL REPORTS...ALBERTA
  
CITY           SKY/WX    TMP DP  RH WIND       PRES   REMARKS
EDMONTON       CLOUDY    37  27  65 W7        29.71S                  
CALGARY        MOSUNNY   48  14  25 W22G29    29.73S                  
LETHBRIDGE     MOSUNNY   52  19  28 W28       29.78F                  
MEDICINE HAT   MOSUNNY   50  19  29 NW15      29.74F                  
WATERTON GATE    N/A     43  18  36 SW20G29     N/A                   
CARDSTON         N/A     45  18  33 W20G29      N/A                   
MILK RIVER       N/A     48  18  29 W22G30      N/A                   
--------------------------------

REGIONAL REPORTS...SASKATCHEWAN
  
CITY           SKY/WX    TMP DP  RH WIND       PRES   REMARKS
SWIFT CURRENT  SUNNY     34  27  75 W10       29.66S WCI  26          
REGINA         PTSUNNY   36  28  75 W10       29.65S WCI  28          
SASKATOON      MOSUNNY   32  27  80 SW9       29.66S WCI  24          
CYPRESS HILLS    N/A     39  19  45 NW13G21     N/A  WCI  32          
VAL MARIE        N/A     43  30  61 W17         N/A                   
ROCKGLEN         N/A     36  25  64 W12         N/A  WCI  27          
--------------------------------